星链-34586 (STARLINK-34586)

导读 | 豆包AI

STARLINK-34586是美国SpaceX公司星链星座的一员,于2025年7月26日发射入轨。星链计划旨在构建全球低轨卫星通信网络,为全球用户提供高速宽带互联网服务,同时也具备一定的军事应用潜力。该卫星采用霍尔推进器,设计寿命5-7年,退役后会主动离轨再入大气层烧毁,减少空间垃圾产生,目前已在轨正常运行。

Basic Information
目录编号:
64950
目录名称:
STARLINK-34586
国际标识:
2025-158U
轨道中心:
EARTH
卫星名称:
星链-34586
卫星全名:
星链-34586 (STARLINK-34586)
卫星状态:
在轨 (已飞行231 天)
发射日期:
2025-07-26 UTC
国别 :
美国 (US)
星等 :
--
Orbit Information
数据来源 国际轨道数据 AOE轨道数据
星历时间 2026-03-14T04:59:19+0800
18小时前
查看轨道信息
2026-03-14T09:00:00+0800
14小时前
查看轨道信息
半长轴 6927.616km 6927.583km
偏心率 0.0002576 0.0002268
轨道倾角 97.603° 97.603°
近地点辐角 73.247° 65.253°
升交点赤经 298.181° 298.346°
平近点角 286.904° 120.343°
近地点 547.694km 547.874km
远地点 551.264km 551.018km
周期 95.639分钟 95.638分钟
每日圈数 15.056606 15.056714
Detailed Information
固有亮度:
5
最大亮度:
2.5
卫星平台:
Starlink V1.0
覆盖范围:
全球
运营商:
太空探索技术公司
运营商所在国:
美国
制造商(研发单位):
太空探索技术公司
制造商所在国:
美国
使用方式:
暂无
Satellite Introduction
Starlink 计划是 SpaceX 推出的全球卫星互联网项目,通过发射低轨道卫星,为全球尤其是偏远地区提供高速、低延迟的互联网服务。自 2019 年起,Starlink 已部署数千颗卫星,旨在缩小全球数字鸿沟,推动互联网普及。该项目还为军事、航空等行业提供通信支持,带来广泛经济效益。
2D Orbit Map
3D Orbit Map
Orbit Altitude Analysis Chart
Orbit Inclination Analysis Chart
Orbit Comprehensive Analysis Chart
View Comprehensive Chart